Flag for U.S.A. Weather past 2 weeks in Baton Rouge, Louisiana, U.S.A.

Now
66 °F

Fog.


Feels Like: 66 °F
Forecast: 61 / 76 °F
Wind: 7 mph from Southeast

Location: Baton Rouge Metropolitan - Ryan Field

Current Time: Mar 3, 2015 at 9:21:25 AM

Latest Report: Mar 3, 2015 at 8:53 AM


Visibility: 0 mi

Pressure: 30.10 "Hg

Humidity: 100%

Dew point: 66 °F

Location of Baton RougeLocation

Historic Weather in Baton Rouge — Graph

°F

Baton Rouge temperature yesterday

Maximum temperature yesterday: 66 °F (at 12:53 PM)
Minimum temperature yesterday: 56 °F (at 10:53 PM)
Average temperature yesterday: 61 °F

Past Weeks' High & Low Weather Summary

 TemperatureHumidityPressure
High76 °F (Feb 22, 12:53 PM)100% (Mar 1, 5:53 AM)30.49 "Hg (Mar 1, 5:53 AM)
Low29 °F (Feb 18, 2:53 AM)21% (Feb 18, 1:53 PM)29.73 "Hg (Feb 25, 3:53 PM)
Average49 °F77%30.17 "Hg
* Reported Feb 16 7:53 AM — Mar 3 7:53 AM, Baton Rouge, Weather by CustomWeather, © 2015

Note: Actual official high and low records may vary slightly from our data, if they occured in-between our weather recording intervals... More about our weather records

Advertising

Baton Rouge weather history for previous 24 hours

 ConditionsComfort  
Time TempWeatherWind HumidityBarometerVisibility
7:53 AM
Tue, Mar 3
63 °FFog.3 mph100%30.11 "Hg0 mi
6:53 AM60 °FFog.No wind96%30.11 "Hg0 mi
5:53 AM58 °FFog.No wind100%30.10 "Hg1 mi
4:53 AM57 °FFog.3 mph100%30.10 "Hg0 mi
3:53 AM56 °FFog.No wind100%30.11 "Hg0 mi
2:53 AM56 °FFog.5 mph97%30.11 "Hg0 mi
1:53 AM57 °FFog.No wind100%30.14 "Hg0 mi
12:53 AM57 °FFog.3 mph100%30.15 "Hg0 mi
11:53 PM
Mon, Mar 2
56 °FFog.No wind100%30.17 "Hg1 mi
10:53 PM56 °FFog.No wind100%30.19 "Hg0 mi
9:53 PM57 °FFog.3 mph96%30.21 "Hg0 mi
8:53 PM58 °FFog.3 mph100%30.20 "Hg0 mi
7:53 PM59 °FFog.3 mph100%30.20 "Hg1 mi
6:53 PM61 °FFog.3 mph97%30.19 "Hg2 mi
5:53 PM63 °FFog.5 mph93%30.18 "Hg2 mi
4:53 PM63 °FMostly cloudy.No wind97%30.19 "Hg10 mi
4:03 PM64 °FFog.6 mph94%30.20 "Hg1 mi
2:53 PM65 °FFog.3 mph97%30.20 "Hg1 mi
1:53 PM65 °FFog.5 mph97%30.21 "Hg1 mi
12:53 PM66 °FFog.No wind93%30.23 "Hg1 mi
11:53 AM65 °FFog.No wind94%30.26 "Hg2 mi
10:53 AM63 °FFog.3 mph97%30.27 "Hg1 mi
9:53 AM62 °FFog.5 mph96%30.28 "Hg1 mi
Weather by CustomWeather, © 2015

See weather overviewHow to use our weather pages